Location: Orangeville
(43.9200°N, 80.0943°W)
Time: 07:59:51
(UTC-05:00)

ISS - Pass Details

Date: 29 November 2021
Orbit: 413 x 422 km, 51.6° (Epoch: 24 January)

Event Time Altitude Azimuth Distance (km) Brightness Sun altitude
Rises 18:47:14 0° 299° (WNW) 2,382 0.9 -21.5°
Reaches altitude 10° 18:49:36 10° 314° (NW) 1,513 -0.5 -22.0°
Enters shadow 18:51:15 20° 338° (NNW) 1,039 -1.7 -22.3°
